[Date Prev][Date Next][Thread Prev][Thread Next] - [Date Index][Thread Index][Author Index]

2 Line ISS Keps 10-12 [ UPDATED!]



ISS
1 25544U 98067A   02285.70515647  .01424894  00000-0  15625-1 0  2492
2 25544  51.6325 182.7319 0014962 351.5149 100.4177 15.59726875222365


----
Via the sarex mailing list at AMSAT.ORG courtesy of AMSAT-NA.
To unsubscribe, send "unsubscribe sarex" to Majordomo@amsat.org



AMSAT Top AMSAT Home